�N����,����,�~����,�C��,���x,�C��,����,���ϕ���,�ő�u�ԕ���,�ő厞����,���˗�,�I�_���x,�n�����x,�ő啗���N��,DTYPE
"22/02/26","00:10",0.0,-0.2,82.2,1017.1,308.4,1.2,2.4,322.9,0.00,-2.8,5.5,"00:02:40",1
"22/02/26","00:20",0.0,-0.3,83.1,1017.3,323.6,1.0,2.0,321.0,0.00,-2.8,5.5,"00:18:24",1
"22/02/26","00:30",0.0,-0.5,83.7,1017.1,310.9,1.0,1.7,321.5,0.00,-2.9,5.4,"00:24:56",1
"22/02/26","00:40",0.0,-0.7,84.7,1017.3,322.7,1.6,2.4,331.8,0.00,-2.9,5.5,"00:36:32",1
"22/02/26","00:50",0.0,-0.8,85.5,1017.3,322.4,1.5,1.8,327.4,0.00,-2.9,5.3,"00:44:32",1
"22/02/26","01:00",0.0,-0.7,86.1,1017.5,320.5,1.3,2.1,309.1,0.00,-2.7,5.3,"00:58:48",1
"22/02/26","01:10",0.0,-0.9,86.6,1017.5,311.2,0.8,1.4,267.9,0.00,-2.8,5.5,"01:04:16",1
"22/02/26","01:20",0.0,-0.9,87.1,1017.3,318.1,1.0,2.2,324.6,0.00,-2.7,5.4,"01:16:56",1
"22/02/26","01:30",0.0,-1.2,87.7,1017.3,322.5,1.5,2.5,334.0,0.00,-2.9,5.3,"01:21:44",1
"22/02/26","01:40",0.0,-1.3,88.2,1017.3,314.1,1.5,2.0,318.9,0.00,-3.0,5.2,"01:30:32",1
"22/02/26","01:50",0.0,-1.3,88.7,1017.8,317.9,1.2,2.1,329.4,0.00,-2.9,5.1,"01:43:36",1
"22/02/26","02:00",0.0,-1.2,89.2,1017.8,290.5,1.2,2.9,335.2,0.00,-2.7,5.1,"01:59:12",1
"22/02/26","02:10",0.0,-1.1,89.4,1017.5,304.1,1.2,2.0,325.7,0.00,-2.6,5.0,"02:07:44",1
"22/02/26","02:20",0.0,-1.1,89.8,1017.5,290.5,1.0,1.8,291.5,0.00,-2.5,5.0,"02:15:36",1
"22/02/26","02:30",0.0,-0.9,90.1,1017.5,325.5,1.5,3.1,337.2,0.00,-2.3,4.8,"02:26:00",1
"22/02/26","02:40",0.0,-1.2,90.3,1017.5,314.1,1.5,2.4,320.9,0.00,-2.5,4.9,"02:36:48",1
"22/02/26","02:50",0.0,-1.4,90.5,1017.5,308.5,1.0,2.4,325.9,0.00,-2.7,4.7,"02:48:00",1
"22/02/26","03:00",0.0,-1.7,90.8,1017.5,323.1,2.0,3.1,324.4,0.00,-3.0,4.8,"02:50:02",1
"22/02/26","03:10",0.0,-2.0,91.2,1017.5,318.1,2.2,2.8,326.6,0.00,-3.2,4.8,"03:00:32",1
"22/02/26","03:20",0.0,-1.8,91.4,1016.8,310.2,1.7,2.5,325.1,0.00,-3.0,4.8,"03:11:28",1
"22/02/26","03:30",0.0,-1.7,91.6,1017.1,325.7,1.3,2.5,322.7,0.00,-2.8,4.8,"03:20:08",1
"22/02/26","03:40",0.0,-1.7,91.8,1017.3,310.7,2.0,2.6,325.8,0.00,-2.8,4.6,"03:38:48",1
"22/02/26","03:50",0.0,-1.9,92.1,1016.8,317.7,1.7,2.4,319.8,0.00,-3.0,4.7,"03:44:00",1
"22/02/26","04:00",0.0,-2.0,92.3,1016.8,314.1,2.0,2.6,325.7,0.00,-3.0,4.6,"03:54:32",1
"22/02/26","04:10",0.0,-2.2,92.5,1017.3,307.7,2.1,2.5,322.7,0.00,-3.2,4.6,"04:02:00",1
"22/02/26","04:20",0.0,-2.2,92.8,1017.1,306.7,1.3,2.0,316.0,0.00,-3.2,4.5,"04:17:36",1
"22/02/26","04:30",0.0,-1.9,93.0,1016.8,319.8,1.7,2.2,315.6,0.00,-2.8,4.4,"04:21:44",1
"22/02/26","04:40",0.0,-2.5,93.1,1016.8,317.6,2.6,3.2,322.3,0.00,-3.4,4.4,"04:34:08",1
"22/02/26","04:50",0.0,-2.7,93.3,1017.5,301.7,1.7,2.5,318.8,0.00,-3.6,4.4,"04:41:28",1
"22/02/26","05:00",0.0,-2.6,93.5,1017.3,309.6,1.6,2.4,319.9,0.00,-3.5,4.6,"04:54:00",1
"22/02/26","05:10",0.0,-2.7,93.7,1016.8,313.9,2.6,3.5,325.2,0.00,-3.5,4.4,"05:05:04",1
"22/02/26","05:20",0.0,-2.9,93.9,1017.5,308.2,2.1,2.6,308.6,0.00,-3.7,4.2,"05:10:24",1
"22/02/26","05:30",0.0,-2.4,94.1,1017.3,309.0,2.3,2.7,304.6,0.00,-3.2,4.4,"05:27:12",1
"22/02/26","05:40",0.0,-2.3,94.1,1017.3,316.3,2.3,2.8,324.3,0.00,-3.1,4.1,"05:32:48",1
"22/02/26","05:50",0.0,-2.6,94.2,1017.3,310.1,2.2,3.1,316.1,0.00,-3.4,4.2,"05:47:20",1
"22/02/26","06:00",0.0,-2.5,94.5,1016.8,320.9,2.5,3.1,316.0,0.00,-3.2,4.4,"05:51:20",1
"22/02/26","06:10",0.0,-2.5,94.4,1017.1,313.4,2.1,2.6,327.4,0.00,-3.2,4.2,"06:00:08",1
"22/02/26","06:20",0.0,-2.4,94.6,1017.3,314.2,2.2,3.2,319.3,0.00,-3.1,4.2,"06:12:16",1
"22/02/26","06:30",0.0,-2.8,94.7,1017.3,319.2,2.8,3.5,325.3,0.00,-3.5,4.1,"06:24:08",1
"22/02/26","06:40",0.0,-2.9,95.0,1017.1,309.7,1.6,2.2,314.6,0.00,-3.5,4.0,"06:30:08",1
"22/02/26","06:50",0.0,-3.2,95.1,1016.8,312.2,2.5,3.5,322.7,0.00,-3.8,4.0,"06:48:18",1
"22/02/26","07:00",0.0,-3.2,95.4,1017.3,319.4,2.8,3.4,321.3,0.00,-3.8,4.0,"06:50:16",1
"22/02/26","07:10",0.0,-3.1,95.5,1017.3,303.1,2.2,2.8,319.3,0.00,-3.7,4.1,"07:01:04",1
"22/02/26","07:20",0.0,-2.7,95.7,1017.8,303.1,1.5,2.0,314.5,0.00,-3.2,4.1,"07:19:28",1
"22/02/26","07:30",0.0,-1.9,95.8,1017.8,326.0,1.7,2.5,321.9,0.00,-2.4,3.8,"07:21:44",1
"22/02/26","07:40",0.0,-1.2,95.6,1018.0,315.1,1.2,1.7,315.8,0.01,-1.8,3.9,"07:32:08",1
"22/02/26","07:50",0.0,-1.1,95.7,1018.0,142.8,0.2,0.5,287.5,0.02,-1.7,3.9,"07:40:08",1
"22/02/26","08:00",0.0,-0.6,95.7,1018.5,302.7,1.3,2.8,323.5,0.03,-1.2,3.8,"07:59:04",1
"22/02/26","08:10",0.0,0.2,95.8,1018.5,285.4,1.0,2.5,320.0,0.04,-0.3,3.9,"08:01:28",1
"22/02/26","08:20",0.0,0.4,95.7,1018.5,319.0,2.5,3.1,326.8,0.06,-0.2,3.9,"08:15:36",1
"22/02/26","08:30",0.0,1.0,95.6,1018.5,318.1,1.8,2.6,321.6,0.09,0.4,3.7,"08:20:40",1
"22/02/26","08:40",0.0,2.1,95.3,1019.0,275.4,0.8,1.1,273.3,0.12,1.5,3.9,"08:35:54",1
"22/02/26","08:50",0.0,3.1,94.8,1019.2,263.5,0.7,1.0,278.4,0.15,2.4,3.8,"08:45:04",1
"22/02/26","09:00",0.0,3.4,93.2,1019.2,279.8,0.8,1.1,284.7,0.19,2.4,3.9,"08:54:46",1
"22/02/26","09:10",0.0,3.9,92.5,1019.9,191.2,0.6,1.0,119.3,0.21,2.8,3.8,"09:06:20",1
"22/02/26","09:20",0.0,4.8,91.2,1020.4,286.3,0.5,1.0,298.7,0.24,3.5,3.8,"09:12:44",1
"22/02/26","09:30",0.0,5.1,89.3,1020.4,210.9,0.6,1.6,312.6,0.27,3.5,3.9,"09:29:00",1
"22/02/26","09:40",0.0,5.6,85.4,1020.6,208.7,0.8,1.6,106.1,0.30,3.4,3.9,"09:32:10",1
"22/02/26","09:50",0.0,6.0,80.1,1020.8,179.1,1.3,2.7,123.7,0.32,2.9,4.1,"09:49:16",1
"22/02/26","10:00",0.0,6.4,75.5,1020.4,188.7,1.2,2.8,140.3,0.35,2.4,4.1,"09:55:36",1
"22/02/26","10:10",0.0,6.8,71.7,1020.4,197.9,1.0,2.0,121.7,0.37,2.1,4.1,"10:01:04",1
"22/02/26","10:20",0.0,7.3,70.2,1020.4,195.2,1.0,2.5,110.8,0.39,2.3,3.9,"10:12:00",1
"22/02/26","10:30",0.0,8.0,67.5,1020.4,233.8,1.1,2.4,205.2,0.41,2.4,4.1,"10:27:02",1
"22/02/26","10:40",0.0,7.7,66.2,1019.9,154.1,1.5,3.5,118.4,0.43,1.8,4.1,"10:36:26",1
"22/02/26","10:50",0.0,8.4,65.5,1020.4,221.8,1.3,2.8,238.1,0.45,2.4,4.3,"10:42:08",1
"22/02/26","11:00",0.0,9.0,64.9,1020.1,212.1,1.6,4.0,224.9,0.47,2.8,4.4,"10:52:48",1
"22/02/26","11:10",0.0,9.1,63.9,1019.9,190.1,1.7,4.2,154.6,0.48,2.7,4.2,"11:00:48",1
"22/02/26","11:20",0.0,9.5,63.1,1019.7,180.3,1.6,3.7,116.0,0.48,2.9,4.5,"11:18:16",1
"22/02/26","11:30",0.0,9.8,60.8,1019.4,175.1,1.3,2.9,128.4,0.49,2.6,4.5,"11:28:24",1
"22/02/26","11:40",0.0,10.1,59.8,1019.4,97.9,1.5,2.7,130.5,0.49,2.7,4.9,"11:30:24",1
"22/02/26","11:50",0.0,10.3,57.3,1019.4,132.7,1.3,3.3,110.8,0.46,2.3,4.9,"11:49:04",1
"22/02/26","12:00",0.0,10.8,56.6,1019.0,214.7,1.0,2.4,351.4,0.47,2.6,4.9,"11:58:24",1
"22/02/26","12:10",0.0,11.1,55.8,1019.0,199.1,1.8,3.2,202.8,0.52,2.7,4.9,"12:03:12",1
"22/02/26","12:20",0.0,11.5,53.2,1018.5,162.4,1.7,4.0,116.1,0.53,2.4,5.1,"12:10:56",1
"22/02/26","12:30",0.0,11.7,50.9,1018.5,346.6,1.2,3.4,338.4,0.53,1.9,5.3,"12:26:00",1
"22/02/26","12:40",0.0,11.6,46.5,1018.0,97.5,1.8,3.6,101.2,0.54,0.6,5.3,"12:34:24",1
"22/02/26","12:50",0.0,12.1,44.8,1017.8,135.6,1.3,3.6,115.1,0.54,0.5,5.3,"12:42:32",1
"22/02/26","13:00",0.0,11.8,42.9,1017.1,106.2,1.7,4.4,120.9,0.54,-0.4,5.4,"12:51:28",1
"22/02/26","13:10",0.0,12.3,43.9,1017.3,291.6,2.0,4.1,312.7,0.53,0.4,5.7,"13:03:04",1
"22/02/26","13:20",0.0,13.2,44.2,1016.8,225.3,1.3,3.4,120.0,0.52,1.3,6.0,"13:10:02",1
"22/02/26","13:30",0.0,12.7,42.6,1016.6,138.3,3.6,8.2,298.1,0.52,0.4,5.9,"13:27:52",1
"22/02/26","13:40",0.0,13.0,40.4,1016.4,268.6,2.0,3.7,290.7,0.51,-0.1,6.3,"13:30:24",1
"22/02/26","13:50",0.0,12.8,38.0,1016.6,247.6,2.6,5.9,241.1,0.50,-1.1,6.2,"13:44:48",1
"22/02/26","14:00",0.0,13.4,38.5,1015.9,297.1,2.0,4.7,326.6,0.48,-0.4,6.3,"13:51:36",1
"22/02/26","14:10",0.0,13.8,36.1,1015.9,256.2,1.3,3.3,298.1,0.48,-0.9,6.4,"14:04:00",1
"22/02/26","14:20",0.0,13.6,36.2,1015.4,298.1,2.2,5.9,239.2,0.46,-1.1,6.7,"14:16:24",1
"22/02/26","14:30",0.0,12.9,36.0,1015.2,225.4,3.9,5.9,234.1,0.45,-1.8,6.8,"14:23:36",1
"22/02/26","14:40",0.0,12.7,36.2,1014.9,172.1,3.7,6.8,163.8,0.43,-1.9,6.7,"14:32:08",1
"22/02/26","14:50",0.0,13.1,35.3,1014.9,170.9,3.2,6.4,135.8,0.41,-1.9,6.9,"14:42:08",1
"22/02/26","15:00",0.0,13.1,37.0,1014.5,175.6,3.0,5.7,186.8,0.38,-1.2,7.0,"14:58:40",1
"22/02/26","15:10",0.0,12.9,38.3,1014.5,171.3,3.2,7.4,121.5,0.36,-0.9,7.2,"15:08:24",1
"22/02/26","15:20",0.0,13.1,37.9,1014.2,195.3,3.4,6.4,239.7,0.34,-0.9,7.2,"15:13:28",1
"22/02/26","15:30",0.0,13.5,38.2,1014.7,241.8,2.7,6.2,233.7,0.31,-0.4,7.3,"15:22:24",1
"22/02/26","15:40",0.0,12.9,38.0,1014.5,230.4,3.6,6.8,255.9,0.29,-1.0,7.4,"15:34:40",1
"22/02/26","15:50",0.0,13.2,38.1,1014.2,212.1,2.3,4.8,239.9,0.27,-0.7,7.5,"15:43:20",1
"22/02/26","16:00",0.0,13.5,36.0,1014.2,273.5,2.0,3.6,242.4,0.24,-1.2,7.7,"15:54:24",1
"22/02/26","16:10",0.0,13.8,36.1,1014.0,264.9,1.6,4.2,329.1,0.21,-0.9,7.6,"16:02:00",1
"22/02/26","16:20",0.0,13.3,34.1,1013.8,302.2,2.3,4.3,302.6,0.18,-2.1,7.6,"16:13:28",1
"22/02/26","16:30",0.0,13.2,34.3,1013.8,253.1,2.2,5.5,223.7,0.16,-2.2,7.8,"16:24:08",1
"22/02/26","16:40",0.0,12.7,38.8,1014.0,204.1,3.0,3.9,213.9,0.13,-0.9,7.9,"16:30:32",1
"22/02/26","16:50",0.0,12.8,39.1,1013.5,224.0,2.1,4.0,238.2,0.11,-0.7,7.8,"16:42:16",1
"22/02/26","17:00",0.0,12.3,40.3,1013.8,220.2,2.6,4.2,237.1,0.08,-0.8,7.8,"16:58:24",1
"22/02/26","17:10",0.0,12.1,37.9,1013.8,197.5,2.2,4.5,144.3,0.06,-1.8,7.9,"17:00:56",1
"22/02/26","17:20",0.0,12.1,36.3,1013.5,237.9,2.5,4.5,228.6,0.04,-2.4,7.9,"17:12:56",1
"22/02/26","17:30",0.0,12.1,35.2,1014.0,254.4,2.2,4.0,255.8,0.03,-2.8,7.8,"17:22:48",1
"22/02/26","17:40",0.0,11.7,36.8,1013.8,255.6,2.7,5.0,249.1,0.01,-2.5,7.9,"17:34:16",1
"22/02/26","17:50",0.0,11.1,35.8,1014.0,259.6,2.6,4.2,235.4,0.00,-3.4,7.9,"17:41:36",1
"22/02/26","18:00",0.0,10.7,34.6,1013.8,272.4,2.8,5.6,251.9,0.00,-4.2,7.9,"17:50:16",1
"22/02/26","18:10",0.0,10.4,35.9,1013.5,265.4,2.1,3.3,284.4,0.00,-4.0,7.7,"18:00:08",1
"22/02/26","18:20",0.0,9.9,39.6,1013.3,261.0,1.5,2.0,248.6,0.00,-3.2,8.0,"18:11:36",1
"22/02/26","18:30",0.0,9.1,42.9,1013.5,282.6,1.5,2.1,312.6,0.00,-2.8,8.0,"18:23:52",1
"22/02/26","18:40",0.0,8.4,44.0,1013.8,302.5,1.6,2.6,324.4,0.00,-3.1,7.9,"18:34:40",1
"22/02/26","18:50",0.0,7.7,47.2,1013.0,322.3,1.7,2.5,327.8,0.00,-2.8,7.8,"18:44:56",1
"22/02/26","19:00",0.0,7.0,50.3,1012.8,320.4,1.8,2.9,322.1,0.00,-2.6,7.8,"18:55:04",1
"22/02/26","19:10",0.0,6.4,53.4,1013.0,315.9,1.8,2.7,316.2,0.00,-2.3,7.7,"19:07:12",1
"22/02/26","19:20",0.0,5.7,56.6,1012.6,303.3,1.6,3.4,316.1,0.00,-2.2,7.7,"19:10:02",1
"22/02/26","19:30",0.0,5.9,57.3,1012.6,301.7,3.1,4.8,292.9,0.00,-1.8,7.7,"19:27:20",1
"22/02/26","19:40",0.0,6.0,56.6,1012.6,310.6,3.5,5.4,324.8,0.00,-1.9,7.7,"19:39:12",1
"22/02/26","19:50",0.0,5.6,57.6,1012.3,260.2,1.5,3.4,331.2,0.00,-2.1,7.7,"19:40:08",1
"22/02/26","20:00",0.0,5.5,57.8,1012.8,292.0,2.2,3.7,307.6,0.00,-2.1,7.4,"19:59:52",1
"22/02/26","20:10",0.0,4.8,60.8,1012.8,314.6,2.8,4.3,317.2,0.00,-2.1,7.5,"20:03:44",1
"22/02/26","20:20",0.0,4.5,62.8,1012.8,299.9,1.8,2.8,321.1,0.00,-1.9,7.5,"20:12:48",1
"22/02/26","20:30",0.0,4.5,63.9,1012.6,281.4,2.2,3.2,265.7,0.00,-1.7,7.3,"20:25:44",1
"22/02/26","20:40",0.0,4.4,64.6,1012.8,287.3,2.6,3.4,317.9,0.00,-1.6,7.4,"20:30:32",1
"22/02/26","20:50",0.0,4.2,65.1,1012.8,290.9,2.2,2.6,315.0,0.00,-1.7,7.2,"20:45:28",1
"22/02/26","21:00",0.0,4.1,66.2,1012.3,292.5,2.5,3.9,310.9,0.00,-1.6,7.1,"20:58:08",1
"22/02/26","21:10",0.0,3.7,67.3,1012.1,295.1,1.8,2.5,307.4,0.00,-1.8,7.2,"21:09:12",1
"22/02/26","21:20",0.0,3.6,68.4,1012.3,296.5,2.2,3.1,311.7,0.00,-1.6,7.1,"21:15:52",1
"22/02/26","21:30",0.0,3.4,69.3,1012.6,298.7,2.0,3.4,322.9,0.00,-1.6,7.1,"21:25:52",1
"22/02/26","21:40",0.0,3.1,70.3,1012.3,287.1,1.6,2.8,319.5,0.00,-1.7,6.8,"21:31:36",1
"22/02/26","21:50",0.0,3.0,71.0,1012.1,297.2,1.8,2.5,314.0,0.00,-1.7,6.8,"21:40:08",1
"22/02/26","22:00",0.0,2.6,71.9,1011.9,321.1,2.1,3.1,322.8,0.00,-1.9,7.0,"21:53:12",1
"22/02/26","22:10",0.0,2.1,72.9,1012.3,311.8,1.8,2.5,323.9,0.00,-2.2,6.9,"22:09:28",1
"22/02/26","22:20",0.0,2.4,73.8,1012.1,291.4,2.1,2.7,307.9,0.00,-1.8,6.9,"22:12:48",1
"22/02/26","22:30",0.0,2.7,74.3,1011.6,306.6,2.6,4.4,320.7,0.00,-1.4,6.8,"22:22:16",1
"22/02/26","22:40",0.0,2.7,74.9,1011.9,246.5,1.1,2.8,249.2,0.00,-1.3,6.7,"22:39:12",1
"22/02/26","22:50",0.0,3.1,74.9,1011.4,284.0,2.6,3.6,263.5,0.00,-0.9,6.7,"22:43:20",1
"22/02/26","23:00",0.0,2.9,75.4,1011.2,323.5,3.5,4.7,321.1,0.00,-1.0,6.6,"22:54:48",1
"22/02/26","23:10",0.0,2.9,75.9,1010.9,304.0,2.6,4.1,325.7,0.00,-0.9,6.5,"23:00:56",1
"22/02/26","23:20",0.0,2.6,76.4,1011.2,281.3,1.5,2.1,270.5,0.00,-1.1,6.6,"23:18:16",1
"22/02/26","23:30",0.0,2.3,76.9,1011.2,294.3,1.2,2.1,301.0,0.00,-1.3,6.5,"23:23:12",1
"22/02/26","23:40",0.0,2.0,77.6,1011.2,308.9,1.7,2.8,335.2,0.00,-1.5,6.3,"23:39:20",1
"22/02/26","23:50",0.0,1.7,78.4,1010.7,316.4,2.0,2.8,329.9,0.00,-1.6,6.6,"23:42:16",1
"22/02/26","24:00",0.0,1.5,79.1,1010.7,301.0,1.5,2.1,316.7,0.00,-1.7,6.2,"23:59:04",1
